This demonstration page uses our WeatherBlox Daily Observations layout. Learn more.

Left ArrowRight Arrow

Hourly Observations for August 20, 2018

Temp ( °F °C ) Dew Point ( °F °C ) Humidity (%) Winds ( mph kmh ) Pressure ( in mb ) Visibility ( mi km ) Precip ( " mm )
12:59 am 00:59 Cloudy 78 25.6 71 21.7 79 79 ESE 6 9 29.99 1016 10 16 0.00 0.00
1:59 am 01:59 Cloudy 79 26.1 74 23.3 85 85 ENE 7 11 29.99 1016 9 14 0.00 0.00
2:59 am 02:59 Cloudy 78 25.6 74 23.3 87 87 E 6 9 29.99 1016 9 14 0.00 0.00
3:59 am 03:59 Cloudy with Thunderstorms 78 25.6 75 23.9 90 90 E 8 13 29.99 1016 9 14 0.00 0.00
4:35 am 04:35 Cloudy with Thunderstorms 77 25 74 23.3 90 90 E 10 17 29.97 1015 7 11 0.01 0.25
4:59 am 04:59 Cloudy with Thunderstorms 77 25 74 23.3 90 90 ENE 9 15 29.98 1015 8 13 0.02 0.51
5:08 am 05:08 Cloudy with Thunderstorms 77 25 74 23.3 90 90 NE 10 17 30.00 1016 8 13 0.00 0.03
5:31 am 05:31 Cloudy with Strong Thunderstorms 77 25 74 23.3 90 90 E 9 15 30.00 1016 2 3 0.08 2.03
5:47 am 05:47 Cloudy with Strong Thunderstorms 76 24.4 74 23.3 94 94 E 12 19 30.00 1016 2 2 0.27 6.86
5:59 am 05:59 Cloudy with Thunderstorms 76 24.4 74 23.3 94 94 NNE 14 22 30.00 1016 2 3 0.43 10.92
6:07 am 06:07 Cloudy with Thunderstorms 73 22.8 70 21.1 90 90 ENE 9 15 30.00 1016 6 10 0.04 1.02
6:37 am 06:37 Cloudy with Strong Thunderstorms 72 22.2 70 21.1 94 94 W 5 7 30.03 1017 2 3 0.16 4.06
6:47 am 06:47 Cloudy with Thunderstorms 72 22.2 70 21.1 94 94 Calm 30.03 1017 7 11 0.18 4.57
6:59 am 06:59 Cloudy with Thunderstorms 73 22.8 71 21.7 94 94 ESE 7 11 30.02 1017 8 13 0.18 4.57
7:59 am 07:59 Cloudy with Thunderstorms 73 22.8 69 20.6 87 87 ESE 5 7 30.04 1017 10 16 0.00 0.03
8:59 am 08:59 Cloudy 73 22.8 70 21.1 90 90 S 5 7 30.04 1017 10 16 0.00 0.00
9:59 am 09:59 Mostly Cloudy 77 25 71 21.7 82 82 VRB 5 7 30.04 1017 10 16 0.00 0.00
10:59 am 10:59 Mostly Cloudy 80 26.7 70 21.1 71 71 VRB 3 6 30.06 1018 10 16 0.00 0.00
11:59 am 11:59 Mostly Cloudy 83 28.3 71 21.7 67 67 ENE 5 7 30.05 1018 10 16 0.00 0.00
12:41 pm 12:41 Cloudy with Thunderstorms 82 27.8 70 21.1 67 67 ENE 5 7 30.06 1018 10 16 0.00 0.00
12:59 pm 12:59 Cloudy with Thunderstorms 82 27.8 70 21.1 67 67 ESE 6 9 30.06 1018 10 16 0.00 0.00
1:59 pm 13:59 Mostly Cloudy with Thunderstorms 81 27.2 72 22.2 74 74 SE 3 6 30.04 1017 10 16 0.00 0.00
2:59 pm 14:59 Mostly Cloudy with Thunderstorms 81 27.2 72 22.2 74 74 Calm 30.03 1017 10 16 0.00 0.00
3:42 pm 15:42 Mostly Cloudy 83 28.3 73 22.8 72 72 ENE 7 11 30.03 1017 10 16 0.00 0.00
3:59 pm 15:59 Mostly Cloudy 84 28.9 71 21.7 65 65 ENE 10 17 30.02 1017 10 16 0.00 0.00
4:59 pm 16:59 Mostly Cloudy 81 27.2 73 22.8 77 77 ENE 13 20 30.02 1017 10 16 0.00 0.00
5:59 pm 17:59 Mostly Cloudy 81 27.2 71 21.7 72 72 E 8 13 30.02 1017 10 16 0.00 0.00
6:59 pm 18:59 Mostly Cloudy 80 26.7 70 21.1 71 71 E 6 9 30.03 1017 10 16 0.00 0.00
7:59 pm 19:59 Mostly Cloudy 79 26.1 71 21.7 77 77 E 8 13 30.04 1017 10 16 0.00 0.00
8:59 pm 20:59 Mostly Cloudy 78 25.6 72 22.2 82 82 E 8 13 30.06 1018 10 16 0.00 0.00
9:59 pm 21:59 Mostly Cloudy 78 25.6 72 22.2 82 82 E 9 15 30.06 1018 10 16 0.00 0.00
11:59 pm 23:59 Mostly Cloudy 77 25 73 22.8 88 88 E 3 6 30.07 1018 10 16 0.00 0.00

Powered by AerisWeather